Weather History for KGOK - January, 2014

Change the Weather History Date:

Thursday, January 30, 2014

  Actual Average Record
Temperature  
Mean Temperature 44 °F -  
Max Temperature 54 °F 51 °F 71 °F (1988)
Min Temperature 34 °F 27 °F -8 °F (1949)
Degree Days  
Heating Degree Days 21    
Moisture  
Dew Point 18 °F    
Average Humidity 39    
Maximum Humidity 62    
Minimum Humidity 24    
Precipitation  
Precipitation 0.00 in - - ()
Sea Level Pressure  
Sea Level Pressure 29.81 in    
Wind  
Wind Speed 16 mph (SSE)    
Max Wind Speed 23 mph    
Max Gust Speed 41 mph    
Visibility 10 miles    
Events      
Averages and records for this station are not official NWS values.
T = Trace of Precipitation, MM = Missing Value Source: NWS Daily Summary

Daily Weather History Graph

Daily Weather History Graph

Search for Another Location

Airport or City:

Trip Planner

Search our weather history database for the weather conditions in past years. The results will help you decide how hot, cold, wet, or windy it might be!

Date:

Astronomy

Jan. 30, 2014 Rise Set
Actual Time 7:31 AM CST 5:54 PM CST
Civil Twilight 7:04 AM CST 6:21 PM CST
Nautical Twilight 6:33 AM CST 6:52 PM CST
Astronomical Twilight 6:03 AM CST 7:22 PM CST
Moon 6:59 AM CST (1/30) 6:06 PM CST (1/30)
Length of Visible Light 11h 17m
Length of Day
10h 23m
Waning Crescent, 0% of the Moon is Illuminated
Jan 30
Waning Crescent
Jan 30
New
Feb 6
First Quarter
Feb 14
Full
Feb 22
Last Quarter

Hourly Weather History & Observations

Time (CST) Temp. Windchill Dew Point Humidity Pressure Visibility Wind Dir Wind Speed Gust Speed Precip Events Conditions
12:53 AM 35.1 °F 25.2 °F 10.9 °F 37% 29.95 in 10.0 mi South 16.1 mph 25.3 mph N/A   Clear
1:53 AM 35.1 °F 24.5 °F 12.0 °F 39% 29.91 in 10.0 mi South 18.4 mph 28.8 mph N/A   Clear
2:53 AM 35.1 °F 24.8 °F 12.0 °F 39% 29.88 in 10.0 mi South 17.3 mph 29.9 mph N/A   Clear
3:53 AM 35.1 °F 23.8 °F 12.0 °F 39% 29.82 in 10.0 mi South 20.7 mph 29.9 mph N/A   Clear
4:53 AM 34.0 °F 22.7 °F 12.0 °F 40% 29.81 in 10.0 mi South 19.6 mph 32.2 mph N/A   Clear
5:53 AM 34.0 °F 22.7 °F 12.9 °F 42% 29.78 in 10.0 mi South 19.6 mph 29.9 mph N/A   Clear
6:53 AM 34.0 °F 21.8 °F 12.9 °F 42% 29.75 in 10.0 mi South 23.0 mph 41.4 mph N/A   Clear
7:53 AM 34.0 °F 22.1 °F 14.0 °F 44% 29.76 in 10.0 mi South 21.9 mph 31.1 mph N/A   Clear
8:53 AM 36.0 °F 24.7 °F 14.0 °F 41% 29.77 in 10.0 mi South 21.9 mph 33.4 mph N/A   Clear
9:53 AM 39.0 °F 29.3 °F 15.1 °F 38% 29.78 in 10.0 mi South 19.6 mph 27.6 mph N/A   Clear
10:53 AM 44.1 °F 36.5 °F 16.0 °F 32% 29.80 in 10.0 mi SSW 17.3 mph 24.2 mph N/A   Clear
11:53 AM 46.9 °F - 16.0 °F 29% 29.79 in 10.0 mi SSW 18.4 mph 27.6 mph N/A   Clear
12:53 PM 50.0 °F - 17.1 °F 27% 29.78 in 10.0 mi SSW 16.1 mph 23.0 mph N/A   Clear
1:53 PM 52.0 °F - 17.1 °F 25% 29.78 in 10.0 mi SSW 11.5 mph 20.7 mph N/A   Clear
2:53 PM 53.1 °F - 18.0 °F 25% 29.78 in 10.0 mi SSW 11.5 mph 19.6 mph N/A   Clear
3:53 PM 54.0 °F - 18.0 °F 24% 29.78 in 10.0 mi South 5.8 mph - N/A   Clear
4:53 PM 53.1 °F - 19.0 °F 26% 29.80 in 10.0 mi SSE 3.5 mph - N/A   Clear
5:53 PM 48.9 °F - 19.9 °F 32% 29.81 in 9.0 mi ESE 5.8 mph - N/A   Clear
6:53 PM 46.9 °F - 21.9 °F 37% 29.84 in 10.0 mi ESE 6.9 mph - N/A   Clear
7:53 PM 46.9 °F - 26.1 °F 44% 29.84 in 10.0 mi ESE 8.1 mph - N/A   Clear
8:53 PM 46.0 °F 41.4 °F 28.9 °F 51% 29.84 in 10.0 mi SE 9.2 mph - N/A   Clear
9:53 PM 45.0 °F 40.1 °F 28.9 °F 53% 29.84 in 10.0 mi East 9.2 mph - N/A   Clear
10:53 PM 44.1 °F 40.1 °F 30.0 °F 58% 29.83 in 10.0 mi East 6.9 mph - N/A   Clear
11:53 PM 43.0 °F 38.8 °F 30.9 °F 62% 29.82 in 10.0 mi East 6.9 mph - N/A   Clear